Weather History for KBRL - September, 2013

Change the Weather History Date:

Monday, September 9, 2013

  Actual Average Record
Temperature  
Mean Temperature 86 °F 70 °F  
Max Temperature 100 °F 81 °F 100 °F (1912)
Min Temperature 72 °F 59 °F 42 °F (2008)
Degree Days  
Heating Degree Days 0 1  
Month to date heating degree days 0 5  
Since 1 July heating degree days 11 9  
Cooling Degree Days 21 6  
Month to date cooling degree days 96 64  
Year to date cooling degree days 997 1107  
Growing Degree Days 36 (Base 50)    
Moisture  
Dew Point 67 °F    
Average Humidity 65    
Maximum Humidity 100    
Minimum Humidity 29    
Precipitation  
Precipitation 0.00 in 0.12 in 2.60 in (2014)
Month to date precipitation T 1.16  
Year to date precipitation 27.06 28.41  
Sea Level Pressure  
Sea Level Pressure 29.86 in    
Wind  
Wind Speed 8 mph (SSW)    
Max Wind Speed 17 mph    
Max Gust Speed 23 mph    
Visibility 8 miles    
Events      
T = Trace of Precipitation, MM = Missing Value Source: NWS Daily Summary

Daily Weather History Graph

Daily Weather History Graph

Search for Another Location

Airport or City:

Trip Planner

Search our weather history database for the weather conditions in past years. The results will help you decide how hot, cold, wet, or windy it might be!

Date:

Astronomy

Sep. 09, 2013 Rise Set
Actual Time 6:39 AM CDT 7:23 PM CDT
Civil Twilight 6:11 AM CDT 7:50 PM CDT
Nautical Twilight 5:38 AM CDT 8:23 PM CDT
Astronomical Twilight 5:05 AM CDT 8:57 PM CDT
Moon 11:03 AM CDT (9/9) 9:37 PM CDT (9/9)
Length of Visible Light 13h 39m
Length of Day
12h 43m
Waxing Crescent, 19% of the Moon is Illuminated
Sep 9
Waxing Crescent
Sep 12
First Quarter
Sep 19
Full
Sep 26
Last Quarter
Oct 4
New

Hourly Weather History & Observations

Time (CDT) Temp. Heat Index Dew Point Humidity Pressure Visibility Wind Dir Wind Speed Gust Speed Precip Events Conditions
12:53 AM 75.0 °F - 71.1 °F 87% 29.88 in 9.0 mi South 8.1 mph - N/A   Clear
1:53 AM 75.0 °F - 71.1 °F 87% 29.86 in 9.0 mi SSE 8.1 mph - N/A   Clear
2:53 AM 73.9 °F - 71.1 °F 91% 29.86 in 9.0 mi South 5.8 mph - N/A   Clear
3:53 AM 73.9 °F - 71.1 °F 91% 29.85 in 8.0 mi South 5.8 mph - N/A   Clear
4:53 AM 73.9 °F - 71.1 °F 91% 29.85 in 7.0 mi South 5.8 mph - N/A   Clear
5:53 AM 73.0 °F - 71.1 °F 93% 29.86 in 6.0 mi South 6.9 mph - N/A   Clear
6:53 AM 72.0 °F - 71.1 °F 97% 29.86 in 4.0 mi South 5.8 mph - N/A   Clear
7:53 AM 75.0 °F - 71.1 °F 87% 29.88 in 5.0 mi SSW 5.8 mph - N/A   Clear
8:53 AM 79.0 °F - 72.0 °F 79% 29.88 in 5.0 mi SW 5.8 mph - N/A   Haze
9:53 AM 84.0 °F 88.4 °F 70.0 °F 63% 29.88 in 8.0 mi WSW 9.2 mph - N/A   Clear
10:53 AM 89.1 °F 93.7 °F 69.1 °F 52% 29.87 in 8.0 mi WSW 9.2 mph - N/A   Clear
11:53 AM 93.0 °F 95.9 °F 66.0 °F 41% 29.86 in 10.0 mi WSW 6.9 mph - N/A   Clear
12:53 PM 97.0 °F 100.4 °F 66.0 °F 36% 29.85 in 10.0 mi WSW 6.9 mph - N/A   Clear
1:53 PM 99.0 °F 102.3 °F 64.9 °F 33% 29.83 in 10.0 mi SSW 9.2 mph - N/A   Clear
2:53 PM 99.0 °F 102.3 °F 64.9 °F 33% 29.82 in 10.0 mi South 11.5 mph - N/A   Partly Cloudy
3:53 PM 100.0 °F 101.8 °F 63.0 °F 29% 29.81 in 5.0 mi SW 13.8 mph 23.0 mph N/A   Haze
4:53 PM 99.0 °F 100.5 °F 62.1 °F 30% 29.81 in 9.0 mi SSW 10.4 mph 19.6 mph N/A   Scattered Clouds
5:53 PM 96.1 °F 97.3 °F 63.0 °F 33% 29.82 in 6.0 mi SSW 12.7 mph - N/A   Haze
6:53 PM 91.9 °F 92.9 °F 63.0 °F 38% 29.83 in 10.0 mi SW 10.4 mph 18.4 mph N/A   Clear
7:53 PM 86.0 °F 87.3 °F 64.0 °F 48% 29.85 in 10.0 mi SW 8.1 mph - N/A   Clear
8:53 PM 82.0 °F 83.8 °F 64.9 °F 56% 29.87 in 6.0 mi SSW 8.1 mph - N/A   Haze
9:53 PM 79.0 °F - 64.0 °F 60% 29.88 in 10.0 mi SSW 8.1 mph - N/A   Clear
10:53 PM 77.0 °F - 63.0 °F 62% 29.90 in 9.0 mi SSW 6.9 mph - N/A   Clear
11:53 PM 79.0 °F - 61.0 °F 54% 29.90 in 9.0 mi SW 6.9 mph - N/A   Clear